#timestamp,LO_Frequency,Hit,StdDev 
1665500415.1,286046999.4,N
1665500416.0,286046999.4,N
1665500435.8,286047000.8,N
1665500455.7,286047000.0,N
1665500475.5,286046998.2,N
1665500495.3,286047000.4,N
1665500515.2,286047000.9,N
1665500535.0,286047001.0,N
1665500535.9,286047001.0,N
1665500555.8,286047000.5,N
1665500575.6,286047001.1,N
1665500595.4,286047001.0,N
1665500615.3,286047000.8,N
1665500635.1,286047000.5,N
1665500655.9,286047000.6,N
1665500675.7,286047000.7,N
1665500695.5,286047000.8,N
1665500715.4,286047000.3,N
1665500735.2,286047000.5,N
1665500755.0,286047000.3,N
1665500756.0,286047000.3,N
1665500775.8,286046998.2,N
1665500795.6,286047000.9,N
1665500815.5,286047000.3,N
1665500835.3,286047000.5,N
1665500855.1,286047000.9,N
1665500875.9,286047002.4,N
1665500895.7,286047000.9,N
1665500915.6,286047000.6,N
1665500935.4,286047000.3,N
1665500955.2,286047000.7,N
1665500975.1,286046998.5,N
1665500976.0,286046998.5,N
1665500995.8,286047001.2,N
1665501015.7,286046998.1,N
1665501035.5,286047000.4,N
1665501055.3,286046999.0,N
1665501075.2,286046998.5,N
1665501095.0,286047000.1,N
1665501095.9,286047000.1,N
1665501115.7,286047000.6,N
1665501135.6,286047000.9,N
1665501155.4,286047000.6,N
1665501175.3,286046999.8,N
1665501195.1,286047002.5,N
1665501215.8,286047002.2,N
1665501235.7,286046999.7,N
1665501255.5,286047000.0,N
1665501275.4,286047000.0,N
1665501295.2,286047000.0,N
1665501315.0,286047000.2,N
1665501315.9,286047000.2,N
1665501335.8,286047000.0,N
1665501355.6,286047000.2,N
1665501375.5,286047000.4,N
1665501395.3,286047002.6,N
1665501415.1,286046999.9,N
1665501435.9,286046999.8,N
1665501455.7,286047002.5,N
1665501475.5,286047001.5,N
1665501495.4,286047004.4,Y
1665501515.2,286047002.4,P
1665501535.1,286047002.1,N
1665501536.0,286047002.1,N
1665501555.8,286047004.2,Y
1665501575.6,286047000.6,P
1665501595.5,286046996.7,P
1665501615.3,286046996.6,N
1665501635.2,286046999.0,N
1665501655.9,286046998.3,N
1665501675.7,286047001.1,N
1665501695.6,286047000.8,N
1665501715.4,286047000.6,N
1665501735.3,286046997.5,N
1665501755.1,286046997.5,N
1665501756.0,286046997.5,N
1665501775.8,286046997.1,N
1665501795.7,286046996.6,N
1665501815.5,286046999.2,N
1665501835.3,286046998.4,N
1665501855.2,286046999.3,N
1665501875.0,286047000.8,N
1665501875.9,286047000.8,N
1665501895.8,286047000.4,N
1665501915.6,286047000.6,N
1665501935.4,286047000.6,N
1665501955.3,286047001.2,N
1665501975.1,286047000.0,N
1665501995.9,286047002.3,N
1665502015.7,286047001.7,N
1665502065.6,286047002.8,E
1665502075.5,286047000.4,N
1665502095.3,286046999.3,P
1665502115.2,286046999.3,N
1665502135.0,286046999.3,N
1665502135.9,286046999.3,N
1665502155.8,286046996.6,Y
1665502175.6,286046996.8,P
1665502195.4,286046999.6,N
1665502215.3,286046999.6,N
1665502235.1,286046996.5,N
1665502255.8,286046998.9,N
1665502275.7,286046999.6,N
1665502295.5,286046997.8,N
1665502315.4,286046999.5,N
1665502335.2,286046999.0,N
1665502355.0,286047001.2,N
1665502355.9,286047001.2,N
1665502375.8,286047000.6,N
1665502395.6,286047001.1,N
1665502415.4,286046998.7,N
1665502435.3,286046996.6,N
1665502455.1,286046996.5,N
1665502475.9,286046998.3,N
1665502495.7,286047001.2,N
1665502515.5,286047000.8,N
1665502535.4,286047000.5,N
1665502555.2,286047000.5,N
1665502575.0,286047000.3,N
1665502575.9,286047000.3,N
1665502595.8,286046998.5,N
1665502615.6,286046998.8,N
1665502635.5,286046999.2,N
1665502655.7,286046999.3,N
1665502675.5,286046996.6,N
1665502695.4,286046998.0,N
1665502715.2,286046997.1,N
1665502735.0,286046996.5,N
1665502735.9,286046996.5,N
1665502755.8,286046999.3,N
1665502775.6,286046999.4,N
1665502795.5,286046999.6,N
1665502815.3,286046997.1,N
1665502835.1,286046994.1,Y
1665502855.9,286046997.1,P
1665502875.7,286046997.3,N
1665502895.6,286046997.3,P
1665502915.4,286046999.2,N
1665502935.2,286046999.2,N
1665502955.1,286047000.7,N
1665502956.0,286047000.7,N
1665502975.8,286046999.7,N
1665502995.7,286047000.1,N
1665503015.5,286047000.7,N
1665503035.3,286047002.3,N
1665503055.2,286047002.8,N
1665503075.0,286047002.0,N
1665503075.9,286047002.0,N
1665503095.7,286047002.4,N
1665503115.6,286047002.7,N
1665503135.4,286047000.5,N
1665503155.3,286047000.3,N
1665503175.1,286047002.7,N
1665503176.0,286047002.7,N
1665503195.8,286046999.7,N
1665503215.7,286046998.1,N
1665503235.5,286047000.7,N
1665503255.4,286046998.7,N
1665503275.2,286047000.5,N
1665503295.0,286046998.4,N
1665503295.9,286046998.4,N
1665503315.8,286046998.3,N
1665503335.6,286047000.4,N
1665503355.4,286047000.4,N
1665503375.3,286047000.2,N
1665503395.1,286047002.1,N
1665503415.9,286047002.2,N
1665503435.7,286047002.0,N
1665503455.5,286047002.3,N
1665503475.4,286047000.3,N
1665503495.2,286047002.6,N
1665503515.0,286047002.8,N
1665503516.0,286047002.8,N
1665503535.8,286047001.8,N
1665503555.6,286047000.7,N
1665503575.5,286046999.4,N
1665503595.3,286047001.2,N
1665503615.1,286046999.3,N
1665503635.9,286047000.0,N
1665503655.7,286047000.0,N
1665503675.6,286047000.3,N
1665503695.4,286047000.5,N
1665503715.2,286047000.4,N
1665503735.1,286047002.0,N
1665503736.0,286047002.0,N
1665503755.8,286047002.4,N
1665503775.7,286047000.6,N
1665503795.5,286046998.5,N
1665503815.3,286046998.5,N
1665503835.2,286046997.3,N
1665503855.0,286046996.8,N
1665503855.9,286046996.8,N
1665503875.8,286046998.9,N
1665503895.6,286046998.8,N
1665503915.4,286046998.9,N
1665503935.3,286047000.9,N
1665503955.1,286047000.7,N
1665503975.9,286046998.5,N
1665503995.7,286047000.4,N
